Regional Weather Roundup
Issued by NWS

Home | Current Version | Previous Version | Graphics & Text | Print | Product List | Glossary On
Versions: 1 2 3 4 5 6 7 8 9 10 11 12 13 14 15 16 17 18 19 20 21 22 23 24 25 26 27 28 29 30 31 32 33 34 35 36 37 38 39 40 41 42 43 44 45 46 47 48 49 50
000
ASUS45 KCYS 260110
RWRWY

WYOMING REGIONAL WEATHER ROUNDUP
NATIONAL WEATHER SERVICE CHEYENNE WY
600 PM MST THU DEC 25 2014

NOTE:  "FAIR" INDICATES FEW OR NO CLOUDS BELOW 12,000 FEET
WITH NO SIGNIFICANT WEATHER AND/OR OBSTRUCTIONS TO VISIBILITY.

WYZ001-260200-
YELLOWSTONE NATIONAL PARK

CITY           SKY/WX    TMP DP  RH WIND       PRES   REMARKS
LK YELLOWSTONE   N/A     13   6  74 VRB6      29.76R WCI   4
W YELLOWSTONE  NOT AVBL

$$
WYZ002>013-054>058-071-098>099-260200-
NORTHERN WYOMING

CITY           SKY/WX    TMP DP  RH WIND       PRES   REMARKS
JACKSON        CLOUDY    21  16  79 N17       29.71R WCI   7
CODY           CLOUDY    19  18  93 N8        29.87R WCI   9
GREYBULL       CLOUDY    23  17  78 NW24G35   29.86R WCI   7
WORLAND        LGT SNOW  23  20  88 W7        29.87R FOG     WCI  15
SHERIDAN       LGT SNOW  21  18  88 NW7       29.95R FOG     WCI  12
BUFFALO        CLOUDY    18  16  92 N22       29.88R WCI   1
GILLETTE       CLOUDY    20  18  92 N15       29.89R FOG     WCI   6
HULETT           N/A    N/A N/A N/A MISG        N/A
NEWCASTLE      FAIR      23  18  80 N20G26    29.84R WCI   8

$$
WYZ014>020-022>026-101>103-260200-
CENTRAL WYOMING

CITY           SKY/WX    TMP DP  RH WIND       PRES   REMARKS
BIG PINEY      CLOUDY    19  15  84 CALM      29.68R
PINEDALE       CLOUDY    19  16  86 NW7       29.68R WCI  10
DUBOIS         NOT AVBL
LANDER         LGT SNOW  20  17  88 N5        29.81R FOG     WCI  13
RIVERTON       LGT SNOW  20  15  81 N17G25    29.81R WCI   5
CASPER         LGT SNOW  19  15  84 NE16G22   29.81R FOG     WCI   4
DOUGLAS        LGT SNOW  20  16  84 N10       29.83R FOG     WCI   9

$$
WYZ021-027>030-104>119-260200-
SOUTHERN WYOMING

CITY           SKY/WX    TMP DP  RH WIND       PRES   REMARKS
EVANSTON       LGT SNOW  20  18  92 NE10      29.66R FOG     WCI   9
FORT BRIDGER   LGT SNOW  19  19  97 E13       29.70R VSB 1   WCI   6
ROCK SPRINGS   LGT SNOW  17  13  84 NE24G36   29.66R FOG     WCI  -1
DIXON          CLOUDY    24  18  78 NE22G28   29.59R WCI   8
RAWLINS        LGT SNOW  18  13  80 NE18G26   29.69R WCI   2
SARATOGA       CLOUDY    23  18  80 SE8       29.62R WCI  14
LARAMIE        LGT SNOW  16  13  88 NE20      29.64R VSB 1   WCI  -1
CHEYENNE       FOG       20  17  88 N15       29.71R VSB 1/2 WCI   6
TORRINGTON     LGT SNOW  24  21  88 NE8       29.81R FOG     WCI  15
PINE BLUFFS      N/A     23  21  93 NE18      29.73R WCI   9

$$



USA.gov is the U.S. government's official web portal to all federal, state and local government web resources and services.